Location: Newark
(43.0000°N, 1.6781°W)
Time: 06:26:50
(UTC+00:00)

Vanguard 1 - Pass Details

Date: 06 December 2021
Orbit: 652 x 3830 km, 34.2° (Epoch: 16 January)

Event Time Altitude Azimuth Distance (km) Brightness Sun altitude
Exits shadow 06:08:01 12° 273° (W) 6,272 13.5 -13.4°
Maximum altitude 06:21:51 29° 226° (SW) 4,074 13.0 -11.0°
Drops below altitude 10° 06:32:10 10° 171° (S) 4,347 13.8 -9.2°
Sets 06:35:34 0° 160° (SSE) 4,932 14.4 -8.6°
